Wind_Speed
18 18 19 19 19 19 19 19 19 18 18 17 17 16 15 15 14 13 12 10 8 7 5 5 5 7 9 11 14 16 18 20 22 22 23 25 26 27 27 28 29 29 30
19 19 20 20 20 20 20 20 19 19 19 18 17 16 15 14 14 13 12 10 9 7 6 6 6 7 8 10 13 15 17 19 20 21 22 23 25 25 26 27 27 28 29
21 21 21 21 21 21 21 21 20 20 19 19 18 17 16 15 14 13 12 10 9 8 7 6 7 8 8 10 11 14 16 18 20 20 21 22 24 24 25 26 27 27 28
22 23 23 23 23 23 22 22 22 21 20 20 19 18 17 16 15 14 13 11 9 9 8 7 7 8 8 10 11 13 15 17 18 19 20 21 22 23 24 25 26 26 27
25 25 25 26 26 25 24 24 23 22 22 21 20 19 17 16 15 14 13 12 10 9 9 8 8 9 9 10 12 13 14 15 17 18 19 19 20 21 22 24 25 24 25
27 28 28 28 28 28 27 26 25 24 23 23 22 21 19 18 16 15 14 13 12 10 9 9 8 8 9 10 11 12 13 14 16 17 18 18 19 20 21 23 24 24 25
30 30 30 30 30 30 29 29 28 27 25 24 24 23 22 20 19 17 16 15 14 13 11 11 10 10 10 10 11 12 13 14 14 16 17 18 19 19 20 22 23 23 24
33 33 33 33 33 32 31 31 30 29 28 27 26 25 24 23 21 20 18 17 16 15 14 13 12 12 12 12 12 12 13 14 14 15 16 17 18 19 19 20 21 22 23
35 35 35 35 35 34 34 33 33 32 30 29 28 27 26 25 24 23 21 20 19 18 17 16 15 14 14 14 14 14 14 15 16 16 17 17 18 19 19 20 20 21 21
37 37 37 37 37 37 37 36 36 35 33 32 31 30 29 28 27 26 24 23 21 21 20 19 18 17 15 15 16 15 15 16 17 17 18 18 19 20 20 21 21 21 22
40 40 39 39 39 39 39 39 39 38 36 35 34 33 31 30 29 28 27 26 24 23 22 21 20 19 18 17 17 17 17 18 18 18 18 19 19 19 19 20 21 21 22
43 43 42 42 41 40 40 41 40 40 39 38 37 36 35 33 32 30 29 28 27 26 24 24 23 22 21 20 19 18 18 18 18 18 18 18 19 19 19 19 20 21 22
46 45 44 44 43 42 41 41 40 40 40 39 39 38 37 36 35 34 32 31 30 28 27 26 26 25 25 24 23 22 21 20 20 19 19 19 20 20 20 20 21 21 21
47 47 46 45 44 43 42 42 41 40 41 41 41 40 40 39 38 37 36 34 33 32 30 29 28 27 26 26 26 25 24 23 22 22 21 21 22 22 22 22 22 22 22
48 48 47 47 46 45 43 42 41 41 41 42 41 41 41 41 40 40 39 38 36 35 34 33 31 30 29 28 27 27 27 26 25 25 24 24 23 23 23 23 24 24 23
48 48 47 46 45 45 44 43 42 42 42 42 42 41 41 41 42 42 42 41 40 39 37 36 34 33 32 30 29 29 28 28 27 26 26 26 25 25 25 25 25 25 25
48 47 45 45 45 45 44 44 43 43 43 43 43 43 43 43 43 44 44 44 43 42 40 39 37 36 34 33 32 30 30 29 29 28 28 27 27 27 26 26 26 26 26
47 46 46 46 45 45 44 43 42 42 42 43 43 44 44 45 45 45 46 45 45 44 43 41 40 38 37 35 34 33 32 31 30 29 29 28 28 28 27 27 27 27 27
47 46 46 46 44 43 42 42 41 41 41 41 42 43 44 45 46 46 47 47 45 45 44 43 41 40 39 37 36 35 34 33 31 31 30 29 29 29 28 28 28 28 28
47 46 46 45 44 43 42 41 41 41 41 41 41 42 44 45 46 46 47 47 45 45 44 43 43 42 40 39 38 36 35 34 33 32 32 31 30 29 29 29 28 28 28
48 46 45 44 43 42 42 42 42 42 42 42 41 42 43 44 45 45 46 47 45 45 45 44 43 42 41 40 39 38 37 36 35 34 33 32 31 31 30 30 29 29 29
48 47 46 45 44 43 42 42 42 42 42 42 41 41 42 43 44 45 46 47 46 46 46 45 44 43 42 41 40 40 39 37 36 35 34 33 32 31 31 30 30 29 29
49 48 47 46 44 43 43 42 42 42 42 42 41 41 42 42 43 44 45 47 48 47 47 46 45 44 43 42 42 41 40 38 37 36 35 34 33 32 31 31 31 30 30
49 48 47 45 44 43 42 41 41 40 41 41 42 42 42 42 43 43 44 46 48 47 47 47 47 46 44 43 42 41 40 39 38 36 35 34 33 32 32 31 31 31 30
48 46 44 43 42 41 41 40 40 39 40 41 42 42 42 42 43 43 44 45 46 47 47 47 47 46 45 44 43 42 40 39 38 37 36 35 34 33 32 31 31 31 31
45 44 43 42 41 41 41 40 40 39 39 39 41 42 41 42 43 44 44 45 46 46 47 47 47 46 46 45 43 42 41 39 38 37 36 34 33 33 32 32 31 31 31
Wind_Direction
305 306 309 310 311 311 311 312 313 316 320 322 321 322 326 330 331 332 332 330 328 325 306 277 252 237 229 224 220 220 220 220 223 223 224 225 223 221 223 225 227 228 229
303 303 306 308 309 309 309 309 310 311 314 316 316 317 319 321 325 326 325 322 317 313 302 279 258 246 235 227 224 222 221 222 222 223 223 224 224 224 226 227 228 229 229
301 301 301 303 305 306 307 306 306 307 308 311 311 311 311 312 315 318 319 317 312 307 299 286 261 246 238 230 225 223 221 220 221 222 221 223 225 227 227 228 229 231 232
300 300 300 300 300 302 303 302 302 301 302 304 306 307 306 305 306 307 307 308 303 298 292 283 269 254 242 233 229 227 223 221 221 222 222 225 226 229 230 231 231 232 233
300 299 299 298 298 298 298 298 298 297 297 297 298 300 301 301 300 300 297 298 295 290 285 277 268 255 248 239 232 228 224 223 223 223 224 225 226 229 231 232 234 235 235
299 298 297 297 296 295 295 294 292 292 292 292 292 292 293 293 292 293 292 291 289 285 281 274 266 256 247 239 232 227 224 224 224 225 225 226 228 229 230 232 235 237 237
297 296 295 294 294 293 292 291 290 288 287 286 286 286 286 285 284 284 283 282 281 278 275 270 263 258 252 242 234 230 228 228 227 226 226 227 228 229 232 233 234 237 238
296 295 294 293 291 289 288 287 287 286 284 283 281 280 280 279 278 277 276 275 273 272 269 266 261 256 253 248 240 235 232 230 229 229 228 230 231 234 236 236 235 238 240
298 296 294 293 291 288 286 283 282 282 280 279 277 276 275 274 273 271 270 269 268 267 265 262 259 256 253 249 243 241 238 236 234 235 235 234 234 236 237 239 241 242 242
298 297 294 292 290 287 284 282 279 277 276 274 273 271 270 269 268 267 266 264 263 262 261 259 257 256 254 252 248 246 243 240 239 239 238 238 239 241 240 241 242 244 245
300 297 294 291 289 286 283 280 278 275 272 270 269 267 266 265 264 263 262 261 260 258 257 256 255 254 254 252 249 247 245 243 242 241 241 242 243 244 243 242 242 246 248
300 298 295 292 289 286 282 280 278 275 271 268 266 264 263 261 261 260 259 258 257 255 254 253 253 252 251 250 250 248 246 245 243 243 244 245 246 246 246 246 246 247 249
300 298 295 292 289 286 283 279 277 275 271 268 264 262 259 257 257 256 256 255 254 253 252 251 251 250 249 248 247 248 249 249 248 248 248 249 249 249 249 250 250 251 252
300 297 295 292 288 285 282 279 277 275 272 268 265 261 258 255 253 253 252 252 251 251 250 249 249 248 248 248 247 247 248 249 249 249 249 250 250 251 251 252 253 254 255
300 297 294 291 288 285 282 279 275 273 271 268 265 262 259 255 251 250 249 248 248 249 248 248 248 248 247 247 248 248 249 249 249 250 251 251 252 252 252 253 254 255 257
300 298 295 291 287 284 281 277 274 271 269 266 263 260 257 254 250 248 247 246 245 246 246 246 246 247 247 246 247 248 249 249 249 250 251 251 252 254 254 255 256 257 258
300 298 296 292 289 286 283 279 273 269 267 264 261 258 256 253 250 247 246 245 244 244 244 244 245 245 246 246 246 247 248 249 249 249 250 251 252 254 255 257 257 258 259
300 298 296 294 291 288 285 281 276 271 267 264 261 258 255 252 249 247 245 244 243 244 244 244 244 244 245 246 246 247 247 248 249 249 250 250 252 254 256 257 259 260 261
300 298 296 295 292 289 285 281 277 272 269 266 262 258 256 251 248 245 244 243 242 243 243 243 243 243 244 245 245 246 247 247 248 249 249 250 251 253 255 257 259 260 262
299 298 297 295 292 288 284 281 277 273 269 266 262 258 255 251 247 246 243 242 242 241 241 241 242 242 242 243 244 244 245 246 247 248 249 250 251 253 255 257 259 261 263
300 299 297 295 292 287 284 280 276 273 269 266 262 259 256 252 248 246 243 241 239 239 240 239 240 241 241 242 242 242 243 244 246 247 248 249 250 252 254 256 258 261 263
300 298 296 295 292 288 285 281 277 273 269 265 261 258 256 253 249 245 242 240 238 237 237 237 238 239 240 240 241 240 241 242 244 245 247 248 250 252 254 256 258 261 264
300 298 295 293 291 289 286 282 278 273 269 264 261 258 255 253 249 246 244 240 237 236 237 236 237 237 238 238 239 239 240 241 243 245 247 249 250 252 253 255 257 260 264
298 297 295 293 291 289 287 283 279 274 269 264 260 257 254 251 249 246 244 241 238 236 236 236 236 235 235 235 236 237 239 240 242 244 246 247 249 251 253 255 258 261 264
298 296 294 292 291 290 288 283 279 275 270 265 259 256 253 249 248 246 243 242 239 236 234 234 234 234 233 234 234 234 236 239 241 244 246 247 249 251 253 256 258 261 264
296 295 293 292 290 289 287 283 280 276 272 266 260 256 253 249 247 246 243 241 239 237 233 231 231 231 231 232 232 233 234 237 240 242 244 246 248 250 252 255 258 261 264
Height
5823 5821 5818 5816 5814 5811 5808 5805 5802 5799 5796 5793 5790 5787 5785 5782 5779 5776 5774 5771 5770 5768 5767 5766 5765 5765 5765 5766 5767 5769 5771 5773 5776 5779 5782 5785 5789 5792 5796 5799 5802 5806 5809
5819 5817 5815 5812 5810 5807 5805 5802 5799 5797 5794 5791 5788 5785 5783 5780 5778 5775 5773 5770 5768 5767 5766 5765 5764 5764 5764 5764 5765 5766 5768 5770 5773 5776 5778 5781 5784 5788 5791 5794 5797 5800 5804
5815 5813 5810 5808 5806 5803 5801 5798 5795 5793 5791 5788 5785 5783 5780 5778 5776 5773 5771 5769 5767 5765 5764 5763 5762 5762 5762 5762 5763 5764 5765 5767 5770 5772 5775 5777 5780 5783 5786 5789 5792 5795 5798
5810 5807 5805 5803 5801 5798 5796 5793 5791 5789 5787 5784 5782 5780 5777 5775 5773 5771 5769 5767 5765 5764 5763 5761 5761 5760 5760 5760 5761 5762 5763 5764 5766 5768 5771 5773 5776 5778 5781 5784 5787 5789 5792
5804 5801 5799 5797 5795 5792 5790 5788 5786 5784 5782 5780 5778 5776 5774 5772 5770 5768 5766 5765 5763 5762 5760 5759 5759 5758 5758 5758 5759 5759 5760 5761 5763 5765 5767 5770 5772 5774 5777 5779 5782 5784 5787
5797 5794 5792 5790 5788 5786 5783 5781 5780 5778 5776 5774 5773 5771 5769 5768 5766 5765 5763 5762 5760 5759 5758 5757 5756 5756 5756 5756 5756 5756 5757 5759 5760 5762 5764 5766 5768 5770 5772 5774 5777 5779 5782
5788 5786 5784 5782 5780 5778 5776 5774 5772 5771 5769 5768 5767 5765 5764 5763 5762 5760 5759 5758 5757 5756 5755 5754 5753 5753 5753 5753 5753 5754 5754 5755 5757 5758 5760 5761 5763 5765 5767 5769 5771 5773 5776
5779 5776 5774 5772 5770 5768 5767 5765 5763 5762 5761 5760 5759 5758 5757 5757 5756 5755 5754 5753 5752 5751 5751 5750 5750 5750 5749 5750 5750 5750 5751 5752 5753 5755 5756 5757 5759 5760 5762 5764 5766 5768 5770
5768 5765 5763 5761 5759 5758 5756 5754 5753 5752 5751 5751 5750 5750 5749 5749 5749 5748 5747 5747 5746 5746 5746 5746 5745 5745 5745 5746 5746 5746 5747 5748 5749 5750 5751 5753 5754 5755 5757 5759 5761 5762 5764
5756 5753 5750 5748 5747 5745 5744 5742 5741 5740 5740 5740 5740 5740 5740 5740 5740 5740 5740 5740 5740 5740 5740 5740 5740 5740 5740 5741 5741 5742 5742 5743 5744 5746 5747 5748 5749 5750 5752 5753 5755 5757 5758
5744 5740 5737 5735 5733 5731 5730 5729 5728 5727 5727 5727 5728 5728 5729 5730 5730 5731 5731 5731 5732 5732 5733 5733 5734 5735 5735 5735 5736 5737 5737 5738 5739 5740 5741 5742 5744 5745 5746 5747 5749 5751 5752
5731 5727 5724 5720 5718 5716 5714 5713 5713 5712 5713 5713 5714 5715 5717 5718 5719 5720 5721 5722 5723 5724 5725 5726 5727 5728 5728 5729 5730 5731 5732 5732 5733 5734 5736 5737 5738 5739 5741 5742 5743 5744 5745
5716 5712 5709 5705 5703 5700 5699 5698 5697 5697 5697 5698 5699 5701 5703 5704 5706 5708 5710 5712 5713 5714 5716 5717 5719 5720 5721 5722 5723 5724 5725 5726 5728 5729 5730 5731 5732 5733 5735 5736 5737 5738 5739
5701 5696 5693 5690 5687 5685 5683 5682 5682 5682 5682 5682 5683 5685 5687 5690 5692 5695 5697 5699 5701 5703 5706 5708 5709 5711 5712 5714 5715 5717 5718 5720 5721 5723 5724 5725 5726 5727 5728 5729 5730 5731 5732
5686 5681 5677 5674 5672 5670 5668 5667 5666 5666 5666 5666 5668 5669 5671 5675 5678 5680 5683 5686 5689 5692 5694 5696 5699 5701 5703 5705 5707 5708 5710 5712 5714 5715 5716 5718 5719 5720 5721 5722 5723 5724 5725
5671 5666 5662 5658 5655 5653 5652 5651 5650 5650 5650 5650 5651 5653 5655 5658 5662 5665 5668 5672 5675 5679 5681 5684 5687 5690 5693 5696 5698 5699 5701 5703 5705 5707 5708 5710 5711 5712 5713 5714 5715 5717 5718
5655 5651 5646 5643 5640 5637 5635 5633 5633 5634 5634 5634 5635 5636 5639 5642 5645 5649 5653 5657 5661 5664 5668 5672 5676 5679 5682 5685 5688 5690 5692 5694 5696 5698 5700 5701 5703 5704 5705 5706 5707 5708 5709
5641 5636 5632 5628 5624 5621 5619 5617 5616 5616 5616 5617 5619 5620 5622 5625 5628 5632 5636 5641 5646 5650 5655 5659 5663 5667 5670 5674 5677 5680 5682 5684 5686 5689 5690 5692 5694 5695 5697 5698 5699 5700 5701
5626 5622 5617 5613 5609 5606 5603 5601 5600 5600 5600 5601 5602 5604 5605 5608 5611 5616 5620 5625 5631 5636 5641 5645 5650 5654 5658 5662 5665 5669 5671 5674 5677 5679 5681 5683 5685 5686 5688 5689 5690 5691 5692
5612 5607 5602 5597 5594 5591 5588 5586 5585 5584 5584 5585 5586 5588 5589 5591 5595 5600 5604 5610 5615 5620 5625 5631 5636 5641 5645 5649 5653 5657 5660 5663 5666 5669 5671 5673 5675 5677 5679 5680 5681 5682 5683
5597 5592 5588 5583 5579 5576 5573 5571 5570 5569 5569 5570 5571 5572 5573 5575 5579 5584 5589 5594 5600 5605 5610 5616 5622 5627 5632 5636 5640 5645 5648 5652 5655 5658 5660 5663 5665 5667 5669 5671 5672 5673 5674
5581 5577 5572 5568 5565 5561 5558 5556 5555 5554 5554 5554 5555 5557 5558 5560 5564 5568 5573 5579 5584 5590 5595 5601 5607 5613 5618 5623 5628 5632 5636 5640 5644 5647 5650 5653 5655 5657 5659 5661 5662 5663 5664
5566 5561 5557 5553 5549 5546 5543 5541 5539 5538 5538 5539 5540 5542 5544 5546 5549 5553 5558 5563 5569 5575 5580 5586 5592 5599 5604 5609 5614 5619 5624 5629 5633 5636 5639 5642 5645 5647 5649 5651 5652 5653 5654
5550 5545 5541 5538 5534 5531 5528 5526 5524 5523 5523 5523 5524 5526 5529 5531 5534 5538 5543 5548 5554 5560 5566 5572 5578 5584 5590 5596 5601 5607 5612 5617 5621 5625 5628 5631 5634 5636 5639 5640 5642 5643 5644
5535 5530 5526 5523 5519 5516 5514 5511 5510 5508 5508 5508 5509 5511 5513 5516 5520 5524 5528 5534 5539 5545 5551 5557 5564 5570 5576 5582 5588 5594 5600 5605 5610 5614 5617 5620 5623 5626 5628 5630 5632 5633 5634
5520 5516 5512 5509 5505 5502 5500 5497 5495 5494 5493 5494 5495 5496 5498 5501 5505 5509 5514 5519 5525 5530 5537 5543 5550 5557 5563 5569 5576 5582 5588 5593 5598 5602 5606 5609 5612 5615 5618 5620 5621 5623 5623